{"data":{"norad_id":63356,"epoch":"2026-09-19T22:07:02.776224Z","epoch_age_seconds":64675,"freshness":"FRESH","line1":"1 63356U 25061F   26262.92155991  .00002469  00000+0  13400-3 0  9997","line2":"2 63356  97.5724 238.4617 0016045 281.7022  78.2409 15.15402768 81983","mean_motion":15.15402768,"eccentricity":0.0016045,"inclination_deg":97.5724,"raan_deg":238.4617,"arg_perigee_deg":281.7022,"mean_anomaly_deg":78.2409,"bstar":0.000134,"rev_number":8198,"period_min":95.024242426354,"perigee_km":508.68839226672,"apogee_km":530.82373110167,"semimajor_km":6897.8930616842,"source":"CELESTRAK","updated_at":"2026-09-20T09:00:34.876546Z"}}